sat.trackr.live / text

‹ back to catalog

STARLINK-35101

NORAD 65700 · 2025-212AA

PAYLOAD ACTIVE UNKNOWN

§ Identity

Operator
Country
US
Launch date
2025-09-21
Launch site
AFETR
Launch vehicle
Mass (kg)
RCS (m²)

Purposes: comms

External: N2YO · Heavens-Above · Gunter

§ Orbital elements

Epoch: 2026-09-19T23:02:23.126496Z

Period
93.85 min
Inclination
53.1584°
Eccentricity
0.0001560
Mean motion
15.34394355 rev/d
Perigee alt
461.7 km
Apogee alt
463.8 km
Semi-major
6,840.9 km
B*
2.2656e-4
RAAN
158.5929°
Arg perigee
80.5254°
Mean anomaly
279.5925°
Rev number
5,700

§ Raw data

STARLINK-351011 65700U 25212AA  26262.95998989  .00007284  00000+0  22656-3 0  99982 65700  53.1584 158.5929 0001560  80.5254 279.5925 15.34394355 57004

JSON: /api/v1/satellites/65700 · /tle

For live sub-satellite position, see the globe view (requires WebGL).

§ Visibility from observer

Set your observer location to see the next 7 days of passes ≥ 10°. The values pass through the URL so the page stays shareable.

No JS? Fill the form by hand. The geolocation button needs JavaScript.